Location: Unspecified
(0.0000°N, 0.0000°E)
Time: 03:54:15
(UTC+00:00)

EQUISAT - All Passes

Search period start: 26 April 2019 00:00
Search period end: 06 May 2019 00:00
Orbit: 382 x 390 km, 51.6° (Epoch: 25 April)

Date Brightness Start Highest point End Pass type
(mag) Time Alt. Az. Time Alt. Az. Time Alt. Az.
26 Apr - 02:01:49 10° S 02:04:34 28° SE 02:07:20 10° ENE night (unlit)
26 Apr - 13:33:29 10° NNE 13:35:32 16° NE 13:37:36 10° E daylight
26 Apr - 15:09:43 10° W 15:11:25 14° SW 15:13:06 10° SSW daylight
27 Apr - 02:39:49 10° WSW 02:42:24 23° NW 02:44:59 10° N night (unlit)
27 Apr - 14:10:19 10° NW 14:13:22 45° SW 14:16:25 10° SSE daylight
28 Apr - 01:41:14 10° SW 01:44:22 87° SE 01:47:29 10° NE night (unlit)
28 Apr - 13:12:19 10° NNW 13:15:19 41° NE 13:18:20 10° SE daylight
29 Apr - 00:43:47 10° S 00:46:18 22° SE 00:48:49 10° ENE night (unlit)
29 Apr - 12:15:43 10° NNE 12:17:13 13° NE 12:18:44 10° E daylight
29 Apr - 13:50:54 10° W 13:53:05 17° SW 13:55:16 10° S daylight
30 Apr - 01:21:15 10° WSW 01:24:03 30° NW 01:26:51 10° N night (unlit)
30 Apr - 12:51:51 10° NW 12:54:58 61° SW 12:58:07 10° SSE daylight
01 May - 00:22:51 10° SSW 00:25:57 63° SE 00:29:02 10° NE night (unlit)
01 May - 11:53:59 10° N 11:56:51 31° NE 11:59:42 10° ESE daylight
01 May - 23:25:37 10° S 23:27:48 17° SE 23:29:58 10° E night (unlit)
02 May - 01:02:18 10° W 01:03:39 12° NW 01:05:01 10° NNW night (unlit)
02 May - 12:32:00 10° WNW 12:34:32 22° SW 12:37:05 10° S daylight
03 May - 00:02:31 10° SW 00:05:29 40° NW 00:08:26 10° NNE night (unlit)
03 May - 11:33:12 10° NW 11:36:21 85° SW 11:39:31 10° SE daylight
03 May - 23:04:16 10° SSW 23:07:18 45° SE 23:10:17 10° NE night (unlit)
04 May - 10:35:31 10° N 10:38:08 24° NE 10:40:47 10° ESE daylight
04 May - 22:07:25 10° SSE 22:09:03 13° SE 22:10:41 10° E night (unlit)
04 May - 23:42:55 10° W 23:44:55 16° NW 23:46:54 10° NNW night (unlit)
05 May - 11:12:57 10° WNW 11:15:45 28° SW 11:18:33 10° S daylight
05 May - 22:43:35 10° SW 22:46:40 56° NW 22:49:44 10° NNE night (unlit)
